Weather History for Bentonville, AR

Change the Weather History Date:

Friday, January 17, 2014

  Actual Average Record
Temperature  
Mean Temperature 29 °F -  
Max Temperature 35 °F 43 °F 72 °F (1952)
Min Temperature 23 °F 24 °F -2 °F (1978)
Degree Days  
Heating Degree Days 36    
Moisture  
Dew Point 7 °F    
Average Humidity 40    
Maximum Humidity 59    
Minimum Humidity 25    
Precipitation  
Precipitation 0.00 in - - ()
Sea Level Pressure  
Sea Level Pressure 30.13 in    
Wind  
Wind Speed 13 mph (WNW)    
Max Wind Speed 22 mph    
Max Gust Speed 32 mph    
Visibility 10 miles    
Events      
Averages and records for this station are not official NWS values.
T = Trace of Precipitation, MM = Missing Value Source: NWS Daily Summary

Daily Weather History Graph

Daily Weather History Graph

Search for Another Location

Airport:

Trip Planner

Search our weather history database for the weather conditions in past years. The results will help you decide how hot, cold, wet, or windy it might be!

Date:

Astronomy

Jan. 17, 2014 Rise Set
Actual Time 7:26 AM CST 5:27 PM CST
Civil Twilight 6:58 AM CST 5:55 PM CST
Nautical Twilight 6:27 AM CST 6:26 PM CST
Astronomical Twilight 5:56 AM CST 6:57 PM CST
Moon 7:10 PM CST (1/17) 7:59 AM CST (1/17)
Length of Visible Light 10h 56m
Length of Day
10h 00m
Full, 98% of the Moon is Illuminated
Jan 17
Full
Jan 23
Last Quarter
Jan 30
New
Feb 6
First Quarter
Feb 14
Full

Hourly Weather History & Observations

Time (CST) Temp. Windchill Dew Point Humidity Pressure Visibility Wind Dir Wind Speed Gust Speed Precip Events Conditions
12:15 AM 35.6 °F 27.1 °F 15.8 °F 44% 30.03 in 10.0 mi NW 12.7 mph 21.9 mph N/A   Partly Cloudy
12:35 AM 33.8 °F 24.8 °F 17.6 °F 52% 30.05 in 10.0 mi NNW 12.7 mph 21.9 mph N/A   Scattered Clouds
12:55 AM 33.8 °F 23.2 °F 15.8 °F 48% 30.05 in 10.0 mi NW 17.3 mph 21.9 mph N/A   Partly Cloudy
1:15 AM 32.0 °F 21.2 °F 14.0 °F 48% 30.05 in 10.0 mi NW 16.1 mph 20.7 mph N/A   Clear
1:35 AM 32.0 °F 19.5 °F 10.4 °F 41% 30.06 in 10.0 mi NW 21.9 mph 32.2 mph N/A   Clear
1:55 AM 30.2 °F 19.3 °F 10.4 °F 44% 30.07 in 10.0 mi NW 15.0 mph 25.3 mph N/A   Clear
2:15 AM 30.2 °F 19.3 °F 5.0 °F 34% 30.08 in 10.0 mi NW 15.0 mph 21.9 mph N/A   Clear
2:35 AM 28.4 °F 17.5 °F 6.8 °F 40% 30.09 in 10.0 mi NW 13.8 mph 24.2 mph N/A   Clear
2:55 AM 28.4 °F 17.0 °F 6.8 °F 40% 30.09 in 10.0 mi NW 15.0 mph 20.7 mph N/A   Clear
3:15 AM 28.4 °F 18.5 °F 6.8 °F 40% 30.10 in 10.0 mi NW 11.5 mph 17.3 mph N/A   Clear
3:35 AM 26.6 °F 15.7 °F 8.6 °F 47% 30.10 in 10.0 mi WNW 12.7 mph 17.3 mph N/A   Clear
3:55 AM 26.6 °F 15.7 °F 8.6 °F 47% 30.10 in 10.0 mi WNW 12.7 mph 20.7 mph N/A   Clear
4:15 AM 26.6 °F 15.7 °F 6.8 °F 43% 30.10 in 10.0 mi NW 12.7 mph 25.3 mph N/A   Clear
4:35 AM 26.6 °F 15.7 °F 6.8 °F 43% 30.10 in 10.0 mi NW 12.7 mph - N/A   Clear
4:55 AM 26.6 °F 15.2 °F 8.6 °F 47% 30.10 in 10.0 mi WNW 13.8 mph 21.9 mph N/A   Clear
5:15 AM 26.6 °F 15.2 °F 6.8 °F 43% 30.10 in 10.0 mi NW 13.8 mph 25.3 mph N/A   Clear
5:35 AM 24.8 °F 12.9 °F 5.0 °F 43% 30.11 in 10.0 mi NW 13.8 mph 19.6 mph N/A   Clear
5:55 AM 24.8 °F 14.0 °F 6.8 °F 46% 30.11 in 10.0 mi WNW 11.5 mph 18.4 mph N/A   Clear
6:15 AM 24.8 °F 14.0 °F 6.8 °F 46% 30.11 in 10.0 mi WNW 11.5 mph 18.4 mph N/A   Clear
6:35 AM 24.8 °F 14.0 °F 6.8 °F 46% 30.11 in 10.0 mi WNW 11.5 mph 16.1 mph N/A   Clear
6:55 AM 24.8 °F 11.9 °F 6.8 °F 46% 30.12 in 10.0 mi WNW 16.1 mph 21.9 mph N/A   Clear
7:15 AM 24.8 °F 11.9 °F 6.8 °F 46% 30.12 in 10.0 mi WNW 16.1 mph 24.2 mph N/A   Clear
7:35 AM 24.8 °F 11.1 °F 3.2 °F 40% 30.13 in 10.0 mi NW 18.4 mph 25.3 mph N/A   Clear
7:55 AM 24.8 °F 13.4 °F 3.2 °F 40% 30.14 in 10.0 mi NW 12.7 mph 20.7 mph N/A   Clear
8:15 AM 24.8 °F 13.4 °F 3.2 °F 40% 30.14 in 10.0 mi NW 12.7 mph 18.4 mph N/A   Clear
8:35 AM 24.8 °F 14.0 °F 5.0 °F 43% 30.15 in 10.0 mi WNW 11.5 mph - N/A   Clear
8:55 AM 24.8 °F 11.9 °F 5.0 °F 43% 30.15 in 10.0 mi NW 16.1 mph 24.2 mph N/A   Clear
9:15 AM 26.6 °F 13.8 °F 3.2 °F 37% 30.17 in 10.0 mi WNW 17.3 mph 25.3 mph N/A   Clear
9:35 AM 26.6 °F 14.7 °F 3.2 °F 37% 30.18 in 10.0 mi NW 15.0 mph 24.2 mph N/A   Clear
9:55 AM 26.6 °F 13.8 °F 3.2 °F 37% 30.19 in 10.0 mi NW 17.3 mph 26.5 mph N/A   Clear
10:15 AM 28.4 °F 15.4 °F 3.2 °F 34% 30.19 in 10.0 mi NW 19.6 mph 25.3 mph N/A   Clear
10:35 AM 28.4 °F 16.6 °F 1.4 °F 31% 30.19 in 10.0 mi WNW 16.1 mph 21.9 mph N/A   Clear
10:55 AM 30.2 °F 18.5 °F 3.2 °F 32% 30.19 in 10.0 mi WNW 17.3 mph 23.0 mph N/A   Clear
11:15 AM 30.2 °F 19.3 °F 3.2 °F 32% 30.19 in 10.0 mi NW 15.0 mph 21.9 mph N/A   Clear
11:35 AM 30.2 °F 18.9 °F 1.4 °F 29% 30.18 in 10.0 mi NW 16.1 mph 24.2 mph N/A   Clear
11:55 AM 32.0 °F 21.6 °F 3.2 °F 30% 30.17 in 10.0 mi NW 15.0 mph - N/A   Clear
12:15 PM 32.0 °F 20.5 °F 1.4 °F 27% 30.16 in 10.0 mi WNW 18.4 mph 24.2 mph N/A   Clear
12:35 PM 32.0 °F 20.8 °F 1.4 °F 27% 30.16 in 10.0 mi WNW 17.3 mph 24.2 mph N/A   Clear
12:55 PM 33.8 °F 23.5 °F 3.2 °F 28% 30.15 in 10.0 mi NW 16.1 mph 26.5 mph N/A   Clear
1:15 PM 33.8 °F 24.3 °F 1.4 °F 25% 30.15 in 10.0 mi WNW 13.8 mph 25.3 mph N/A   Clear
1:35 PM 33.8 °F 22.5 °F 3.2 °F 28% 30.15 in 10.0 mi WNW 19.6 mph 24.2 mph N/A   Clear
1:55 PM 33.8 °F 22.8 °F 3.2 °F 28% 30.15 in 10.0 mi NW 18.4 mph 25.3 mph N/A   Clear
2:15 PM 35.6 °F 25.2 °F 5.0 °F 28% 30.15 in 10.0 mi WNW 18.4 mph 21.9 mph N/A   Clear
2:35 PM 35.6 °F 25.9 °F 5.0 °F 28% 30.15 in 10.0 mi NW 16.1 mph 24.2 mph N/A   Clear
2:55 PM 35.6 °F 24.8 °F 5.0 °F 28% 30.15 in 10.0 mi WNW 19.6 mph 25.3 mph N/A   Clear
3:15 PM 35.6 °F 25.5 °F 5.0 °F 28% 30.15 in 10.0 mi WNW 17.3 mph 23.0 mph N/A   Clear
3:35 PM 35.6 °F 27.1 °F 3.2 °F 26% 30.16 in 10.0 mi NW 12.7 mph 24.2 mph N/A   Clear
3:55 PM 35.6 °F 26.2 °F 3.2 °F 26% 30.16 in 10.0 mi NW 15.0 mph 24.2 mph N/A   Clear
4:15 PM 35.6 °F 28.0 °F 3.2 °F 26% 30.17 in 10.0 mi NW 10.4 mph 17.3 mph N/A   Clear
4:35 PM 35.6 °F 28.6 °F 3.2 °F 26% 30.16 in 10.0 mi NW 9.2 mph - N/A   Clear
4:55 PM 35.6 °F 28.6 °F 6.8 °F 30% 30.16 in 10.0 mi NW 9.2 mph - N/A   Clear
5:15 PM 35.6 °F 29.2 °F 6.8 °F 30% 30.16 in 10.0 mi WNW 8.1 mph 16.1 mph N/A   Clear
5:35 PM 33.8 °F 28.6 °F 8.6 °F 35% 30.16 in 10.0 mi NW 5.8 mph - N/A   Clear
5:55 PM 32.0 °F 28.7 °F 8.6 °F 38% 30.15 in 10.0 mi West 3.5 mph - N/A   Clear
6:15 PM 30.2 °F 26.7 °F 8.6 °F 40% 30.15 in 10.0 mi WSW 3.5 mph - N/A   Clear
6:35 PM 30.2 °F 26.7 °F 8.6 °F 40% 30.14 in 10.0 mi WSW 3.5 mph - N/A   Clear
6:55 PM 30.2 °F 25.4 °F 8.6 °F 40% 30.14 in 10.0 mi SW 4.6 mph - N/A   Clear
7:15 PM 30.2 °F 25.4 °F 8.6 °F 40% 30.14 in 10.0 mi West 4.6 mph - N/A   Clear
7:35 PM 28.4 °F 24.6 °F 8.6 °F 43% 30.14 in 10.0 mi WSW 3.5 mph - N/A   Clear
7:55 PM 28.4 °F 24.6 °F 8.6 °F 43% 30.13 in 10.0 mi WSW 3.5 mph - N/A   Clear
8:15 PM 26.6 °F - 8.6 °F 47% 30.13 in 10.0 mi Calm Calm - N/A   Clear
8:35 PM 26.6 °F 22.6 °F 8.6 °F 47% 30.13 in 10.0 mi South 3.5 mph - N/A   Clear
8:55 PM 24.8 °F 19.1 °F 10.4 °F 54% 30.12 in 10.0 mi SSW 4.6 mph - N/A   Clear
9:15 PM 26.6 °F 21.2 °F 8.6 °F 47% 30.13 in 10.0 mi SW 4.6 mph - N/A   Clear
9:35 PM 26.6 °F 21.2 °F 10.4 °F 51% 30.13 in 10.0 mi SW 4.6 mph - N/A   Clear
9:55 PM 26.6 °F 21.2 °F 8.6 °F 47% 30.13 in 10.0 mi SSW 4.6 mph - N/A   Clear
10:15 PM 26.6 °F 22.6 °F 8.6 °F 47% 30.12 in 10.0 mi SSW 3.5 mph - N/A   Clear
10:35 PM 24.8 °F 19.1 °F 10.4 °F 54% 30.12 in 10.0 mi South 4.6 mph - N/A   Clear
10:55 PM 24.8 °F 20.5 °F 10.4 °F 54% 30.11 in 10.0 mi South 3.5 mph - N/A   Clear
11:15 PM 23.0 °F 17.0 °F 10.4 °F 59% 30.10 in 10.0 mi South 4.6 mph - N/A   Clear
11:35 PM 24.8 °F 19.1 °F 10.4 °F 54% 30.09 in 10.0 mi South 4.6 mph - N/A   Clear
11:55 PM 24.8 °F 19.1 °F 10.4 °F 54% 30.08 in 10.0 mi South 4.6 mph - N/A   Clear